Lincoln, IL

8:59 AM CDT on August 25, 2016 (GMT -0500)
Lincoln

Weather History for KAAA - December, 2012

Change the Weather History Date:

Saturday, December 15, 2012

  Actual Average (KSPI) Record (KSPI)
Temperature  
Mean Temperature 48 °F 30 °F  
Max Temperature 54 °F 38 °F 72 °F (1948)
Min Temperature 43 °F 22 °F -11 °F (1951)
Degree Days  
Heating Degree Days 16 35  
Month to date heating degree days 487  
Since 1 July heating degree days 1555  
Cooling Degree Days 0 0  
Month to date cooling degree days 0  
Year to date cooling degree days 1122  
Moisture  
Dew Point 45 °F    
Average Humidity 87    
Maximum Humidity 95    
Minimum Humidity 75    
Precipitation  
Precipitation 0.44 in 0.08 in 1.37 in (1992)
Month to date precipitation 1.36  
Year to date precipitation 36.27  
Snow  
Snow 0.00 in 0.20 in 8.10 in (2007)
Month to date snowfall 2.2  
Since 1 July snowfall 2.8  
Snow Depth -    
Sea Level Pressure  
Sea Level Pressure 29.72 in    
Wind  
Wind Speed 10 mph (South)    
Max Wind Speed 20 mph    
Max Gust Speed 25 mph    
Visibility 9 miles    
Events Rain    
T = Trace of Precipitation, MM = Missing Value Source: NWS Daily Summary

Daily Weather History Graph

Daily Weather History Graph

Search for Another Location

Airport or City:

Trip Planner

Search our weather history database for the weather conditions in past years. The results will help you decide how hot, cold, wet, or windy it might be!

Date:

Astronomy

Dec. 15, 2012 Rise Set
Actual Time 7:12 AM CST 4:32 PM CST
Civil Twilight 6:42 AM CST 5:03 PM CST
Nautical Twilight 6:08 AM CST 5:37 PM CST
Astronomical Twilight 5:35 AM CST 6:10 PM CST
Moon 9:05 AM CST (12/15) 7:36 PM CST (12/15)
Length of Visible Light 10h 21m
Length of Day
9h 19m
Waxing Crescent, 8% of the Moon is Illuminated
Dec 15
Waxing Crescent
Dec 19
First Quarter
Dec 28
Full
Jan 4
Last Quarter
Jan 11
New

Hourly Weather History & Observations

Time (CST) Temp. Windchill Dew Point Humidity Pressure Visibility Wind Dir Wind Speed Gust Speed Precip Events Conditions
12:15 AM 44.1 °F 39.0 °F 36.5 °F 75% 29.99 in 10.0 mi South 9.2 mph - N/A Rain Light Rain
12:35 AM 43.9 °F 38.8 °F 37.4 °F 78% 29.98 in 10.0 mi South 9.2 mph - N/A Rain Light Rain
12:55 AM 44.6 °F 41.4 °F 37.6 °F 76% 29.96 in 10.0 mi South 5.8 mph - N/A Rain Light Rain
1:15 AM 44.1 °F 40.8 °F 38.3 °F 80% 29.95 in 10.0 mi SSE 5.8 mph - N/A Rain Light Rain
1:35 AM 43.7 °F 39.7 °F 37.9 °F 80% 29.95 in 10.0 mi SSE 6.9 mph - N/A   Overcast
1:55 AM 43.0 °F 38.2 °F 38.3 °F 84% 29.94 in 10.0 mi SSE 8.1 mph - N/A   Overcast
2:15 AM 43.3 °F 38.6 °F 37.8 °F 81% 29.94 in 10.0 mi SSE 8.1 mph - N/A   Overcast
2:35 AM 43.3 °F 40.7 °F 37.8 °F 81% 29.93 in 10.0 mi SSE 4.6 mph - N/A   Overcast
2:55 AM 43.2 °F 40.5 °F 37.8 °F 81% 29.94 in 10.0 mi South 4.6 mph - N/A   Overcast
3:15 AM 43.7 °F 39.1 °F 37.6 °F 79% 29.94 in 10.0 mi SSE 8.1 mph - N/A Rain Rain
3:35 AM 44.2 °F 38.8 °F 38.5 °F 80% 29.92 in 7.0 mi South 10.4 mph - 0.03 in Rain Rain
3:55 AM 43.5 °F 38.9 °F 39.6 °F 86% 29.91 in 7.0 mi SSE 8.1 mph - 0.10 in Rain Rain
4:15 AM 43.0 °F 37.7 °F 40.1 °F 90% 29.88 in 7.0 mi SE 9.2 mph - 0.02 in Rain Rain
4:35 AM 43.2 °F 37.4 °F 40.1 °F 89% 29.85 in 10.0 mi ESE 10.4 mph 16.1 mph 0.04 in Rain Light Rain
4:55 AM 43.7 °F 38.1 °F 40.1 °F 87% 29.84 in 10.0 mi SE 10.4 mph - 0.05 in Rain Light Rain
5:15 AM 43.7 °F 37.7 °F 40.3 °F 88% 29.83 in 10.0 mi SE 11.5 mph 16.1 mph N/A Rain Light Rain
5:35 AM 43.7 °F 36.9 °F 41.0 °F 90% 29.84 in 4.0 mi SSE 13.8 mph 18.4 mph 0.08 in Rain Heavy Rain
5:55 AM 43.9 °F 37.5 °F 41.9 °F 93% 29.83 in 4.0 mi SE 12.7 mph 18.4 mph 0.17 in Rain Heavy Rain
6:15 AM 44.1 °F 37.4 °F 42.3 °F 93% 29.82 in 5.0 mi SSE 13.8 mph 20.7 mph 0.05 in Rain Rain
6:35 AM 44.4 °F 37.9 °F 42.8 °F 94% 29.79 in 5.0 mi SE 13.8 mph 24.2 mph 0.09 in Rain Light Rain
6:55 AM 44.6 °F 38.1 °F 43.0 °F 94% 29.77 in 7.0 mi SE 13.8 mph 23.0 mph 0.09 in Rain Light Rain
7:15 AM 45.1 °F 38.4 °F 43.7 °F 95% 29.75 in 7.0 mi SSE 15.0 mph 21.9 mph N/A   Overcast
7:35 AM 45.5 °F 38.9 °F 43.7 °F 93% 29.76 in 10.0 mi SSE 15.0 mph - N/A   Overcast
7:55 AM 46.0 °F 38.5 °F 43.9 °F 92% 29.76 in 7.0 mi SSE 19.6 mph 24.2 mph N/A Rain Rain
8:15 AM 46.0 °F 39.9 °F 44.2 °F 93% 29.74 in 5.0 mi SSE 13.8 mph 23.0 mph 0.02 in Rain Light Rain
8:35 AM 46.9 °F - 45.0 °F 93% 29.74 in 7.0 mi South 13.8 mph 25.3 mph 0.02 in   Light Drizzle
8:55 AM 47.5 °F - 45.5 °F 93% 29.74 in 5.0 mi South 13.8 mph 19.6 mph 0.02 in   Overcast
9:15 AM 47.5 °F - 45.5 °F 93% 29.73 in 4.0 mi South 13.8 mph - N/A Rain Light Rain
9:35 AM 47.8 °F - 46.0 °F 93% 29.73 in 4.0 mi South 13.8 mph - N/A   Light Drizzle
9:55 AM 48.2 °F - 46.4 °F 93% 29.72 in 3.0 mi South 16.1 mph 20.7 mph N/A   Drizzle
10:15 AM 48.2 °F - 46.6 °F 94% 29.72 in 4.0 mi South 13.8 mph 19.6 mph N/A   Light Drizzle
10:35 AM 48.4 °F - 46.9 °F 95% 29.71 in 4.0 mi South 12.7 mph 18.4 mph N/A   Light Drizzle
10:55 AM 48.7 °F - 47.3 °F 95% 29.69 in 7.0 mi South 13.8 mph - N/A   Overcast
11:15 AM 49.6 °F - 47.7 °F 93% 29.67 in 10.0 mi South 15.0 mph 21.9 mph 0.01 in   Overcast
11:35 AM 50.4 °F - 47.8 °F 91% 29.66 in 10.0 mi South 18.4 mph 21.9 mph 0.01 in   Overcast
11:55 AM 50.4 °F - 47.8 °F 91% 29.64 in 10.0 mi South 13.8 mph 20.7 mph 0.01 in   Overcast
12:15 PM 50.9 °F - 48.2 °F 90% 29.63 in 10.0 mi South 13.8 mph 20.7 mph N/A   Overcast
12:35 PM 50.9 °F - 48.4 °F 91% 29.62 in 10.0 mi South 12.7 mph 21.9 mph N/A   Overcast
12:55 PM 51.1 °F - 48.6 °F 91% 29.61 in 10.0 mi South 11.5 mph - N/A   Overcast
1:15 PM 52.2 °F - 49.1 °F 89% 29.60 in 10.0 mi South 16.1 mph - N/A   Overcast
1:35 PM 52.3 °F - 49.1 °F 89% 29.58 in 7.0 mi South 18.4 mph 23.0 mph N/A   Overcast
1:55 PM 52.7 °F - 49.1 °F 88% 29.58 in 10.0 mi South 17.3 mph 24.2 mph N/A   Light Drizzle
2:15 PM 52.9 °F - 49.1 °F 87% 29.58 in 10.0 mi South 15.0 mph 24.2 mph N/A   Light Drizzle
2:35 PM 53.2 °F - 49.5 °F 87% 29.59 in 10.0 mi South 10.4 mph 16.1 mph N/A   Overcast
2:55 PM 53.6 °F - 49.6 °F 86% 29.59 in 10.0 mi South 13.8 mph - N/A   Overcast
3:15 PM 53.6 °F - 49.6 °F 86% 29.59 in 10.0 mi South 9.2 mph 20.7 mph N/A   Overcast
3:35 PM 53.6 °F - 49.6 °F 86% 29.59 in 10.0 mi South 11.5 mph 16.1 mph N/A   Overcast
3:55 PM 53.6 °F - 50.0 °F 88% 29.59 in 10.0 mi SSW 10.4 mph - N/A   Overcast
4:15 PM 54.0 °F - 50.0 °F 86% 29.60 in 10.0 mi SSW 8.1 mph - N/A   Overcast
4:35 PM 54.0 °F - 50.2 °F 87% 29.61 in 10.0 mi South 9.2 mph - N/A   Overcast
4:55 PM 54.0 °F - 50.4 °F 88% 29.61 in 10.0 mi South 9.2 mph 16.1 mph N/A   Overcast
5:15 PM 53.6 °F - 50.2 °F 88% 29.63 in 10.0 mi SSW 5.8 mph - N/A   Overcast
5:35 PM 53.6 °F - 50.4 °F 89% 29.63 in 10.0 mi SSW 5.8 mph - N/A   Overcast
5:55 PM 53.6 °F - 50.2 °F 88% 29.63 in 10.0 mi SSW 4.6 mph - N/A   Overcast
6:15 PM 53.1 °F - 50.2 °F 90% 29.63 in 10.0 mi SSW 3.5 mph - N/A   Overcast
6:35 PM 52.9 °F - 50.0 °F 90% 29.64 in 10.0 mi SSW 4.6 mph - N/A   Overcast
6:55 PM 53.1 °F - 50.0 °F 89% 29.64 in 10.0 mi SSW 4.6 mph - N/A   Overcast
7:15 PM 53.8 °F - 49.1 °F 84% 29.65 in 10.0 mi SW 5.8 mph - N/A   Overcast
7:35 PM 53.6 °F - 48.2 °F 82% 29.64 in 10.0 mi SW 3.5 mph - N/A   Overcast
7:55 PM 53.8 °F - 47.5 °F 79% 29.65 in 10.0 mi SW 3.5 mph - N/A   Overcast
8:15 PM 53.6 °F - 47.7 °F 80% 29.65 in 10.0 mi SW 4.6 mph - N/A   Overcast
8:35 PM 52.9 °F - 47.3 °F 81% 29.65 in 10.0 mi SSW 3.5 mph - N/A   Overcast
8:55 PM 52.7 °F - 47.3 °F 82% 29.65 in 10.0 mi SSW 4.6 mph - N/A   Overcast
9:15 PM 52.7 °F - 46.9 °F 81% 29.65 in 10.0 mi SSW 3.5 mph - N/A   Overcast
9:35 PM 51.8 °F - 46.9 °F 83% 29.65 in 10.0 mi Calm Calm - N/A   Overcast
9:55 PM 51.4 °F - 46.9 °F 85% 29.65 in 10.0 mi SSW 3.5 mph - N/A   Overcast
10:15 PM 51.4 °F - 47.3 °F 86% 29.65 in 10.0 mi Calm Calm - N/A   Overcast
10:35 PM 51.3 °F - 47.3 °F 86% 29.65 in 10.0 mi SSW 3.5 mph - N/A   Overcast
10:55 PM 51.1 °F - 47.3 °F 87% 29.66 in 10.0 mi SSW 4.6 mph - N/A   Overcast
11:15 PM 51.3 °F - 47.3 °F 86% 29.66 in 10.0 mi SSW 5.8 mph - N/A   Overcast
11:35 PM 50.9 °F - 47.3 °F 87% 29.66 in 10.0 mi SSW 4.6 mph - N/A   Overcast
11:55 PM 50.9 °F - 46.9 °F 86% 29.66 in 10.0 mi SSW 4.6 mph - N/A   Overcast